When you browse on this site, cookies collect data to enhance your experience and personalize the content and advertising you see.
Visit our Privacy Policy to learn more. By continuing to use the site, you agree to this use of cookies and data.
  • In Lithuania
  • List of Countries
  • For 7 days
  • Water Temperature
  • Weather Map
  • Weather Widgets
  • user-avatar
    Login

    Hourly Weather Tibissa

    Today, 25 May, Monday

    Time Temperature Precipitation Wind Pressure Humidity
    00:00 +20°C° 0 mm 2 mps 691 mmHg 39%
    01:00 +21°C° 0 mm 1 mps 691 mmHg 42%
    02:00 +20°C° 0 mm 1 mps 691 mmHg 45%
    03:00 +19°C° 0 mm 1 mps 690 mmHg 48%
    04:00 +19°C° 0 mm 1 mps 690 mmHg 51%
    05:00 +19°C° 0 mm 1 mps 690 mmHg 48%
    06:00 +20°C° 0 mm 1 mps 690 mmHg 46%
    07:00 +21°C° 0 mm 1 mps 690 mmHg 43%
    08:00 +22°C° 0 mm 1 mps 691 mmHg 37%
    09:00 +24°C° 0 mm 1 mps 691 mmHg 32%
    10:00 +26°C° 0 mm 1 mps 692 mmHg 26%
    11:00 +27°C° 0 mm 1 mps 691 mmHg 24%
    12:00 +28°C° 0 mm 2 mps 691 mmHg 21%
    13:00 +29°C° 0 mm 2 mps 691 mmHg 19%
    14:00 +29°C° 0 mm 3 mps 691 mmHg 20%
    15:00 +29°C° 0 mm 3 mps 691 mmHg 20%
    16:00 +29°C° 0 mm 4 mps 690 mmHg 20%
    17:00 +29°C° 0 mm 5 mps 690 mmHg 22%
    18:00 +28°C° 0 mm 5 mps 690 mmHg 24%
    19:00 +27°C° 0 mm 5 mps 690 mmHg 27%
    20:00 +25°C° 0 mm 5 mps 690 mmHg 32%
    21:00 +23°C° 0 mm 4 mps 690 mmHg 36%
    22:00 +21°C° 0 mm 3 mps 690 mmHg 41%
    23:00 +21°C° 0 mm 2 mps 690 mmHg 43%

    Tomorrow, 26 May, Tuesday

    Time Temperature Precipitation Wind Pressure Humidity
    00:00 +21°C° 0 mm 1 mps 690 mmHg 45%
    01:00 +20°C° 0 mm 1 mps 690 mmHg 46%
    02:00 +18°C° 0 mm 0 mps 689 mmHg 48%
    03:00 +17°C° 0 mm 0 mps 689 mmHg 50%
    04:00 +16°C° 0 mm 0 mps 689 mmHg 52%
    05:00 +17°C° 0 mm 0 mps 689 mmHg 49%
    06:00 +20°C° 0 mm 1 mps 689 mmHg 46%
    07:00 +21°C° 0 mm 1 mps 690 mmHg 43%
    08:00 +23°C° 0 mm 1 mps 690 mmHg 39%
    09:00 +24°C° 0 mm 1 mps 690 mmHg 35%
    10:00 +26°C° 0 mm 2 mps 691 mmHg 31%
    11:00 +27°C° 0 mm 3 mps 691 mmHg 29%
    12:00 +28°C° 0 mm 3 mps 691 mmHg 26%
    13:00 +29°C° 0 mm 4 mps 691 mmHg 24%
    14:00 +29°C° 0 mm 4 mps 690 mmHg 24%
    15:00 +30°C° 0 mm 5 mps 690 mmHg 23%
    16:00 +30°C° 0 mm 5 mps 690 mmHg 23%
    17:00 +29°C° 0 mm 6 mps 690 mmHg 27%
    18:00 +27°C° 0 mm 6 mps 689 mmHg 32%
    19:00 +26°C° 0 mm 7 mps 689 mmHg 36%
    20:00 +24°C° 0 mm 6 mps 689 mmHg 39%
    21:00 +22°C° 0 mm 5 mps 690 mmHg 41%
    22:00 +21°C° 0 mm 4 mps 690 mmHg 44%
    23:00 +20°C° 0 mm 3 mps 690 mmHg 47%

    Day after tomorrow, 27 May, Wednesday

    Time Temperature Precipitation Wind Pressure Humidity
    00:00 +19°C° 0 mm 2 mps 689 mmHg 50%
    01:00 +19°C° 0 mm 1 mps 689 mmHg 53%
    02:00 +19°C° 0 mm 1 mps 689 mmHg 56%
    03:00 +18°C° 0 mm 1 mps 689 mmHg 59%
    04:00 +18°C° 0 mm 1 mps 688 mmHg 63%
    05:00 +18°C° 0 mm 1 mps 689 mmHg 61%
    06:00 +19°C° 0 mm 1 mps 689 mmHg 58%
    07:00 +18°C° 0 mm 2 mps 689 mmHg 56%
    08:00 +20°C° 0 mm 2 mps 689 mmHg 49%
    09:00 +21°C° 0 mm 2 mps 690 mmHg 43%
    10:00 +23°C° 0 mm 2 mps 690 mmHg 36%
    11:00 +25°C° 0 mm 3 mps 690 mmHg 33%
    12:00 +26°C° 0 mm 3 mps 690 mmHg 31%
    13:00 +27°C° 0 mm 3 mps 690 mmHg 28%
    14:00 +27°C° 0 mm 4 mps 690 mmHg 26%
    15:00 +27°C° 0 mm 4 mps 690 mmHg 25%
    16:00 +28°C° 0 mm 4 mps 690 mmHg 24%
    17:00 +27°C° 0 mm 4 mps 690 mmHg 26%
    18:00 +26°C° 0 mm 5 mps 690 mmHg 28%
    19:00 +25°C° 0 mm 5 mps 690 mmHg 30%
    20:00 +22°C° 0 mm 5 mps 690 mmHg 38%
    21:00 +20°C° 0 mm 6 mps 690 mmHg 46%
    22:00 +17°C° 0 mm 6 mps 690 mmHg 54%
    23:00 +17°C° 0 mm 5 mps 690 mmHg 55%

    28 May, Thursday

    Time Temperature Precipitation Wind Pressure Humidity
    00:00 +17°C° 0 mm 4 mps 690 mmHg 57%
    01:00 +16°C° 0 mm 3 mps 690 mmHg 58%
    02:00 +16°C° 0 mm 2 mps 690 mmHg 59%
    03:00 +16°C° 0 mm 2 mps 689 mmHg 59%
    04:00 +15°C° 0 mm 1 mps 689 mmHg 59%
    05:00 +16°C° 0 mm 1 mps 689 mmHg 56%
    06:00 +16°C° 0 mm 1 mps 689 mmHg 52%
    07:00 +16°C° 0 mm 1 mps 690 mmHg 48%
    08:00 +19°C° 0 mm 1 mps 690 mmHg 42%
    09:00 +20°C° 0 mm 1 mps 690 mmHg 36%
    10:00 +22°C° 0 mm 1 mps 690 mmHg 30%
    11:00 +23°C° 0 mm 2 mps 690 mmHg 30%
    12:00 +24°C° 0 mm 2 mps 690 mmHg 29%
    13:00 +26°C° 0 mm 3 mps 690 mmHg 29%
    14:00 +26°C° 0 mm 3 mps 690 mmHg 29%
    15:00 +26°C° 0 mm 3 mps 689 mmHg 30%
    16:00 +26°C° 0 mm 4 mps 689 mmHg 30%
    17:00 +26°C° 0 mm 4 mps 688 mmHg 31%
    18:00 +25°C° 0 mm 4 mps 688 mmHg 31%
    19:00 +25°C° 0 mm 4 mps 688 mmHg 32%
    20:00 +23°C° 0 mm 4 mps 688 mmHg 33%
    21:00 +22°C° 0 mm 5 mps 688 mmHg 34%
    22:00 +21°C° 0 mm 5 mps 688 mmHg 35%
    23:00 +20°C° 0 mm 5 mps 688 mmHg 36%

    29 May, Friday

    Time Temperature Precipitation Wind Pressure Humidity
    00:00 +20°C° 0 mm 5 mps 688 mmHg 37%
    01:00 +19°C° 0 mm 4 mps 687 mmHg 38%
    02:00 +19°C° 0 mm 4 mps 687 mmHg 38%
    03:00 +19°C° 0 mm 4 mps 687 mmHg 38%
    04:00 +18°C° 0 mm 3 mps 686 mmHg 39%
    05:00 +19°C° 0.2 mm 4 mps 686 mmHg 39%
    06:00 +19°C° 0.2 mm 4 mps 687 mmHg 39%
    07:00 +20°C° 0.2 mm 4 mps 687 mmHg 39%
    08:00 +21°C° 0.1 mm 5 mps 687 mmHg 37%
    09:00 +23°C° 0.1 mm 6 mps 687 mmHg 35%
    10:00 +24°C° 0.1 mm 7 mps 687 mmHg 33%
    11:00 +26°C° 0.1 mm 7 mps 687 mmHg 33%
    12:00 +27°C° 0.1 mm 6 mps 687 mmHg 33%
    13:00 +27°C° 0.1 mm 6 mps 686 mmHg 33%
    14:00 +26°C° 0.8 mm 5 mps 686 mmHg 38%
    15:00 +25°C° 0.8 mm 5 mps 685 mmHg 42%
    16:00 +23°C° 0.8 mm 4 mps 685 mmHg 47%
    17:00 +22°C° 1.4 mm 4 mps 684 mmHg 53%
    18:00 +21°C° 1.4 mm 3 mps 684 mmHg 58%
    19:00 +20°C° 1.4 mm 3 mps 684 mmHg 64%
    20:00 +20°C° 0.7 mm 2 mps 685 mmHg 66%
    21:00 +20°C° 0.7 mm 2 mps 685 mmHg 68%
    22:00 +19°C° 0.7 mm 2 mps 685 mmHg 70%
    23:00 +19°C° 0 mm 2 mps 685 mmHg 71%

    30 May, Saturday

    Time Temperature Precipitation Wind Pressure Humidity
    00:00 +19°C° 0 mm 1 mps 685 mmHg 72%
    01:00 +19°C° 0 mm 1 mps 685 mmHg 72%
    02:00 +18°C° 0 mm 1 mps 685 mmHg 73%
    03:00 +18°C° 0 mm 1 mps 685 mmHg 74%
    04:00 +16°C° 0 mm 1 mps 685 mmHg 75%
    05:00 +18°C° 0 mm 1 mps 685 mmHg 71%
    06:00 +18°C° 0 mm 1 mps 685 mmHg 68%
    07:00 +17°C° 0 mm 2 mps 686 mmHg 64%
    08:00 +19°C° 0 mm 2 mps 686 mmHg 54%
    09:00 +20°C° 0 mm 2 mps 686 mmHg 45%
    10:00 +21°C° 0 mm 2 mps 687 mmHg 35%
    11:00 +24°C° 0 mm 2 mps 687 mmHg 32%
    12:00 +25°C° 0 mm 2 mps 687 mmHg 29%
    13:00 +26°C° 0 mm 2 mps 687 mmHg 26%
    14:00 +27°C° 0 mm 2 mps 687 mmHg 26%
    15:00 +27°C° 0 mm 2 mps 687 mmHg 25%
    16:00 +28°C° 0 mm 3 mps 686 mmHg 24%
    17:00 +28°C° 0 mm 3 mps 686 mmHg 25%
    18:00 +27°C° 0 mm 3 mps 686 mmHg 26%
    19:00 +27°C° 0 mm 3 mps 686 mmHg 27%
    20:00 +26°C° 0 mm 3 mps 687 mmHg 31%
    21:00 +25°C° 0 mm 3 mps 687 mmHg 34%
    22:00 +22°C° 0 mm 3 mps 687 mmHg 38%
    23:00 +21°C° 0 mm 3 mps 686 mmHg 46%
    Show more